Year,Month,Day,Hour,Minute,Value (Times are PST for temperature in C)
2009,09,28,00,00,10.40
2009,09,28,00,01,10.40
2009,09,28,00,02,10.40
2009,09,28,00,03,10.40
2009,09,28,00,04,10.40
2009,09,28,00,05,10.40
2009,09,28,00,06,10.40
2009,09,28,00,07,10.30
2009,09,28,00,08,10.30
2009,09,28,00,09,10.30
2009,09,28,00,10,10.30
2009,09,28,00,11,10.30
2009,09,28,00,12,10.30
2009,09,28,00,13,10.30
2009,09,28,00,14,10.30
2009,09,28,00,15,10.30
2009,09,28,00,16,10.30
2009,09,28,00,17,10.30
2009,09,28,00,18,10.30
2009,09,28,00,19,10.30
2009,09,28,00,20,10.30
2009,09,28,00,21,10.30
2009,09,28,00,22,10.30
2009,09,28,00,23,10.20
2009,09,28,00,24,10.20
2009,09,28,00,25,10.20
2009,09,28,00,26,10.20
2009,09,28,00,27,10.20
2009,09,28,00,28,10.20
2009,09,28,00,29,10.30
2009,09,28,00,30,10.30
2009,09,28,00,31,10.30
2009,09,28,00,32,10.30
2009,09,28,00,33,10.30
2009,09,28,00,34,10.30
2009,09,28,00,35,10.30
2009,09,28,00,36,10.30
2009,09,28,00,37,10.30
2009,09,28,00,38,10.20
2009,09,28,00,39,10.20
2009,09,28,00,40,10.20
2009,09,28,00,41,10.20
2009,09,28,00,42,10.20
2009,09,28,00,43,10.20
2009,09,28,00,44,10.20
2009,09,28,00,45,10.10
2009,09,28,00,46,10.10
2009,09,28,00,47,10.10
2009,09,28,00,48,10.10
2009,09,28,00,49,10.10
2009,09,28,00,50,10.10
2009,09,28,00,51,10.10
2009,09,28,00,52,10.10
2009,09,28,00,53,10.10
2009,09,28,00,54,10.10
2009,09,28,00,55,10.10
2009,09,28,00,56,10.10
2009,09,28,00,57,10.10
2009,09,28,00,58,10.10
2009,09,28,00,59,10.10
2009,09,28,01,00,10.10
2009,09,28,01,01,10.10
2009,09,28,01,02,10.10
2009,09,28,01,03,10.10
2009,09,28,01,04,10.10
2009,09,28,01,05,10.20
2009,09,28,01,06,10.20
2009,09,28,01,07,10.20
2009,09,28,01,08,10.20
2009,09,28,01,09,10.20
2009,09,28,01,10,10.20
2009,09,28,01,11,10.20
2009,09,28,01,12,10.20
2009,09,28,01,13,10.20
2009,09,28,01,14,10.20
2009,09,28,01,15,10.20
2009,09,28,01,16,10.20
2009,09,28,01,17,10.20
2009,09,28,01,18,10.20
2009,09,28,01,19,10.10
2009,09,28,01,20,10.10
2009,09,28,01,21,10.10
2009,09,28,01,22,10.10
2009,09,28,01,23,10.10
2009,09,28,01,24,10.10
2009,09,28,01,25,10.10
2009,09,28,01,26,10.10
2009,09,28,01,27,10.10
2009,09,28,01,28,10.10
2009,09,28,01,29,10.00
2009,09,28,01,30,9.90
2009,09,28,01,31,9.90
2009,09,28,01,32,9.90
2009,09,28,01,33,9.90
2009,09,28,01,34,9.90
2009,09,28,01,35,9.90
2009,09,28,01,36,9.90
2009,09,28,01,37,9.80
2009,09,28,01,38,9.80
2009,09,28,01,39,9.80
2009,09,28,01,40,9.80
2009,09,28,01,41,9.80
2009,09,28,01,42,9.70
2009,09,28,01,43,9.70
2009,09,28,01,44,9.70
2009,09,28,01,45,9.70
2009,09,28,01,46,9.70
2009,09,28,01,47,9.70
2009,09,28,01,48,9.70
2009,09,28,01,49,9.70
2009,09,28,01,50,9.70
2009,09,28,01,51,9.70
2009,09,28,01,52,9.70
2009,09,28,01,53,9.70
2009,09,28,01,54,9.70
2009,09,28,01,55,9.70
2009,09,28,01,56,9.70
2009,09,28,01,57,9.70
2009,09,28,01,58,9.70
2009,09,28,01,59,9.70
2009,09,28,02,00,9.70
2009,09,28,02,01,9.70
2009,09,28,02,02,9.70
2009,09,28,02,03,9.70
2009,09,28,02,04,9.70
2009,09,28,02,05,9.70
2009,09,28,02,06,9.70
2009,09,28,02,07,9.70
2009,09,28,02,08,9.60
2009,09,28,02,09,9.60
2009,09,28,02,10,9.60
2009,09,28,02,11,9.60
2009,09,28,02,12,9.50
2009,09,28,02,13,9.50
2009,09,28,02,14,9.50
2009,09,28,02,15,9.50
2009,09,28,02,16,9.40
2009,09,28,02,17,9.40
2009,09,28,02,18,9.40
2009,09,28,02,19,9.40
2009,09,28,02,20,9.30
2009,09,28,02,21,9.30
2009,09,28,02,22,9.30
2009,09,28,02,23,9.30
2009,09,28,02,24,9.30
2009,09,28,02,25,9.20
2009,09,28,02,26,9.20
2009,09,28,02,27,9.20
2009,09,28,02,28,9.20
2009,09,28,02,29,9.20
2009,09,28,02,30,9.20
2009,09,28,02,31,9.20
2009,09,28,02,32,9.20
2009,09,28,02,33,9.20
2009,09,28,02,34,9.20
2009,09,28,02,35,9.20
2009,09,28,02,36,9.20
2009,09,28,02,37,9.20
2009,09,28,02,38,9.20
2009,09,28,02,39,9.20
2009,09,28,02,40,9.20
2009,09,28,02,41,9.20
2009,09,28,02,42,9.20
2009,09,28,02,43,9.20
2009,09,28,02,44,9.20
2009,09,28,02,45,9.20
2009,09,28,02,46,9.20
2009,09,28,02,47,9.20
2009,09,28,02,48,9.20
2009,09,28,02,49,9.20
2009,09,28,02,50,9.20
2009,09,28,02,51,9.20
2009,09,28,02,52,9.20
2009,09,28,02,53,9.20
2009,09,28,02,54,9.20
2009,09,28,02,55,9.20
2009,09,28,02,56,9.20
2009,09,28,02,57,9.20
2009,09,28,02,58,9.20
2009,09,28,02,59,9.20
2009,09,28,03,00,9.20
2009,09,28,03,01,9.20
2009,09,28,03,02,9.20
2009,09,28,03,03,9.20
2009,09,28,03,04,9.20
2009,09,28,03,05,9.20
2009,09,28,03,06,9.20
2009,09,28,03,07,9.20
2009,09,28,03,08,9.20
2009,09,28,03,09,9.20
2009,09,28,03,10,9.20
2009,09,28,03,11,9.20
2009,09,28,03,12,9.20
2009,09,28,03,13,9.20
2009,09,28,03,14,9.20
2009,09,28,03,15,9.20
2009,09,28,03,16,9.20
2009,09,28,03,17,9.20
2009,09,28,03,18,9.20
2009,09,28,03,19,9.10
2009,09,28,03,20,9.10
2009,09,28,03,21,9.10
2009,09,28,03,22,9.10
2009,09,28,03,23,9.10
2009,09,28,03,24,9.10
2009,09,28,03,25,9.00
2009,09,28,03,26,9.00
2009,09,28,03,27,9.00
2009,09,28,03,28,9.00
2009,09,28,03,29,9.00
2009,09,28,03,30,8.90
2009,09,28,03,31,8.90
2009,09,28,03,32,8.90
2009,09,28,03,33,8.90
2009,09,28,03,34,8.90
2009,09,28,03,35,8.80
2009,09,28,03,36,8.80
2009,09,28,03,37,8.80
2009,09,28,03,38,8.80
2009,09,28,03,39,8.70
2009,09,28,03,40,8.70
2009,09,28,03,41,8.70
2009,09,28,03,42,8.70
2009,09,28,03,43,8.70
2009,09,28,03,44,8.70
2009,09,28,03,45,8.70
2009,09,28,03,46,8.60
2009,09,28,03,47,8.60
2009,09,28,03,48,8.60
2009,09,28,03,49,8.60
2009,09,28,03,50,8.60
2009,09,28,03,51,8.50
2009,09,28,03,52,8.50
2009,09,28,03,53,8.50
2009,09,28,03,54,8.50
2009,09,28,03,55,8.50
2009,09,28,03,56,8.50
2009,09,28,03,57,8.50
2009,09,28,03,58,8.50
2009,09,28,03,59,8.50
2009,09,28,04,00,8.50
2009,09,28,04,01,8.50
2009,09,28,04,02,8.50
2009,09,28,04,03,8.50
2009,09,28,04,04,8.50
2009,09,28,04,05,8.50
2009,09,28,04,06,8.50
2009,09,28,04,07,8.50
2009,09,28,04,08,8.50
2009,09,28,04,09,8.50
2009,09,28,04,10,8.50
2009,09,28,04,11,8.50
2009,09,28,04,12,8.50
2009,09,28,04,13,8.60
2009,09,28,04,14,8.60
2009,09,28,04,15,8.60
2009,09,28,04,16,8.60
2009,09,28,04,17,8.60
2009,09,28,04,18,8.60
2009,09,28,04,19,8.50
2009,09,28,04,20,8.50
2009,09,28,04,21,8.50
2009,09,28,04,22,8.40
2009,09,28,04,23,8.40
2009,09,28,04,24,8.40
2009,09,28,04,25,8.30
2009,09,28,04,26,8.30
2009,09,28,04,27,8.30
2009,09,28,04,28,8.30
2009,09,28,04,29,8.30
2009,09,28,04,30,8.30
2009,09,28,04,31,8.30
2009,09,28,04,32,8.20
2009,09,28,04,33,8.20
2009,09,28,04,34,8.20
2009,09,28,04,35,8.20
2009,09,28,04,36,8.20
2009,09,28,04,37,8.20
2009,09,28,04,38,8.20
2009,09,28,04,39,8.20
2009,09,28,04,40,8.20
2009,09,28,04,41,8.20
2009,09,28,04,42,8.20
2009,09,28,04,43,8.20
2009,09,28,04,44,8.20
2009,09,28,04,45,8.20
2009,09,28,04,46,8.20
2009,09,28,04,47,8.20
2009,09,28,04,48,8.20
2009,09,28,04,49,8.20
2009,09,28,04,50,8.20
2009,09,28,04,51,8.20
2009,09,28,04,52,8.20
2009,09,28,04,53,8.20
2009,09,28,04,54,8.20
2009,09,28,04,55,8.20
2009,09,28,04,56,8.30
2009,09,28,04,57,8.30
2009,09,28,04,58,8.30
2009,09,28,04,59,8.40
2009,09,28,05,00,8.40
2009,09,28,05,01,8.40
2009,09,28,05,02,8.50
2009,09,28,05,03,8.50
2009,09,28,05,04,8.50
2009,09,28,05,05,8.50
2009,09,28,05,06,8.60
2009,09,28,05,07,8.60
2009,09,28,05,08,8.60
2009,09,28,05,09,8.60
2009,09,28,05,10,8.60
2009,09,28,05,11,8.60
2009,09,28,05,12,8.70
2009,09,28,05,13,8.70
2009,09,28,05,14,8.70
2009,09,28,05,15,8.70
2009,09,28,05,16,8.70
2009,09,28,05,17,8.70
2009,09,28,05,18,8.70
2009,09,28,05,19,8.70
2009,09,28,05,20,8.70
2009,09,28,05,21,8.70
2009,09,28,05,22,8.70
2009,09,28,05,23,8.70
2009,09,28,05,24,8.70
2009,09,28,05,25,8.70
2009,09,28,05,26,8.70
2009,09,28,05,27,8.70
2009,09,28,05,28,8.70
2009,09,28,05,29,8.70
2009,09,28,05,30,8.70
2009,09,28,05,31,8.60
2009,09,28,05,32,8.60
2009,09,28,05,33,8.60
2009,09,28,05,34,8.50
2009,09,28,05,35,8.50
2009,09,28,05,36,8.50
2009,09,28,05,37,8.50
2009,09,28,05,38,8.40
2009,09,28,05,39,8.40
2009,09,28,05,40,8.40
2009,09,28,05,41,8.40
2009,09,28,05,42,8.40
2009,09,28,05,43,8.40
2009,09,28,05,44,8.30
2009,09,28,05,45,8.30
2009,09,28,05,46,8.30
2009,09,28,05,47,8.30
2009,09,28,05,48,8.30
2009,09,28,05,49,8.30
2009,09,28,05,50,8.30
2009,09,28,05,51,8.30
2009,09,28,05,52,8.30
2009,09,28,05,53,8.30
2009,09,28,05,54,8.30
2009,09,28,05,55,8.40
2009,09,28,05,56,8.40
2009,09,28,05,57,8.50
2009,09,28,05,58,8.50
2009,09,28,05,59,8.50
2009,09,28,06,00,8.50
2009,09,28,06,01,8.60
2009,09,28,06,02,8.60
2009,09,28,06,03,8.70
2009,09,28,06,04,8.70
2009,09,28,06,05,8.70
2009,09,28,06,06,8.80
2009,09,28,06,07,8.80
2009,09,28,06,08,8.80
2009,09,28,06,09,8.90
2009,09,28,06,10,8.90
2009,09,28,06,11,8.90
2009,09,28,06,12,8.90
2009,09,28,06,13,9.00
2009,09,28,06,14,9.00
2009,09,28,06,15,9.00
2009,09,28,06,16,9.00
2009,09,28,06,17,9.00
2009,09,28,06,18,9.00
2009,09,28,06,19,9.00
2009,09,28,06,20,9.00
2009,09,28,06,21,9.00
2009,09,28,06,22,9.00
2009,09,28,06,23,9.00
2009,09,28,06,24,9.00
2009,09,28,06,25,9.00
2009,09,28,06,26,9.00
2009,09,28,06,27,9.00
2009,09,28,06,28,9.00
2009,09,28,06,29,8.90
2009,09,28,06,30,8.90
2009,09,28,06,31,8.90
2009,09,28,06,32,8.90
2009,09,28,06,33,8.80
2009,09,28,06,34,8.80
2009,09,28,06,35,8.80
2009,09,28,06,36,8.80
2009,09,28,06,37,8.80
2009,09,28,06,38,8.80
2009,09,28,06,39,8.80
2009,09,28,06,40,8.80
2009,09,28,06,41,8.80
2009,09,28,06,42,8.80
2009,09,28,06,43,8.80
2009,09,28,06,44,8.90
2009,09,28,06,45,8.90
2009,09,28,06,46,8.90
2009,09,28,06,47,8.90
2009,09,28,06,48,8.90
2009,09,28,06,49,8.90
2009,09,28,06,50,9.00
2009,09,28,06,51,9.00
2009,09,28,06,52,9.10
2009,09,28,06,53,9.20
2009,09,28,06,54,9.20
2009,09,28,06,55,9.30
2009,09,28,06,56,9.30
2009,09,28,06,57,9.40
2009,09,28,06,58,9.40
2009,09,28,06,59,9.50
2009,09,28,07,00,9.60
2009,09,28,07,01,9.60
2009,09,28,07,02,9.60
2009,09,28,07,03,9.70
2009,09,28,07,04,9.70
2009,09,28,07,05,9.70
2009,09,28,07,06,9.70
2009,09,28,07,07,9.70
2009,09,28,07,08,9.70
2009,09,28,07,09,9.70
2009,09,28,07,10,9.70
2009,09,28,07,11,9.70
2009,09,28,07,12,9.70
2009,09,28,07,13,9.70
2009,09,28,07,14,9.80
2009,09,28,07,15,9.80
2009,09,28,07,16,9.80
2009,09,28,07,17,9.70
2009,09,28,07,18,9.70
2009,09,28,07,19,9.70
2009,09,28,07,20,9.70
2009,09,28,07,21,9.70
2009,09,28,07,22,9.60
2009,09,28,07,23,9.60
2009,09,28,07,24,9.50
2009,09,28,07,25,9.50
2009,09,28,07,26,9.40
2009,09,28,07,27,9.40
2009,09,28,07,28,9.30
2009,09,28,07,29,9.30
2009,09,28,07,30,9.20
2009,09,28,07,31,9.20
2009,09,28,07,32,9.20
2009,09,28,07,33,9.10
2009,09,28,07,34,9.10
2009,09,28,07,35,9.10
2009,09,28,07,36,9.00
2009,09,28,07,37,9.00
2009,09,28,07,38,9.00
2009,09,28,07,39,9.00
2009,09,28,07,40,8.90
2009,09,28,07,41,8.90
2009,09,28,07,42,8.90
2009,09,28,07,43,8.80
2009,09,28,07,44,8.80
2009,09,28,07,45,8.80
2009,09,28,07,46,8.80
2009,09,28,07,47,8.80
2009,09,28,07,48,8.80
2009,09,28,07,49,8.80
2009,09,28,07,50,8.80
2009,09,28,07,51,8.80
2009,09,28,07,52,8.70
2009,09,28,07,53,8.70
2009,09,28,07,54,8.70
2009,09,28,07,55,8.70
2009,09,28,07,56,8.70
2009,09,28,07,57,8.70
2009,09,28,07,58,8.70
2009,09,28,07,59,8.80
2009,09,28,08,00,8.80
2009,09,28,08,01,8.80
2009,09,28,08,02,8.80
2009,09,28,08,03,8.90
2009,09,28,08,04,8.90
2009,09,28,08,05,8.90
2009,09,28,08,06,8.90
2009,09,28,08,07,8.90
2009,09,28,08,08,9.00
2009,09,28,08,09,9.00
2009,09,28,08,10,9.00
2009,09,28,08,11,9.10
2009,09,28,08,12,9.10
2009,09,28,08,13,9.20
2009,09,28,08,14,9.20
2009,09,28,08,15,9.20
2009,09,28,08,16,9.20
2009,09,28,08,17,9.20
2009,09,28,08,18,9.30
2009,09,28,08,19,9.30
2009,09,28,08,20,9.30
2009,09,28,08,21,9.40
2009,09,28,08,22,9.40
2009,09,28,08,23,9.50
2009,09,28,08,24,9.50
2009,09,28,08,25,9.50
2009,09,28,08,26,9.50
2009,09,28,08,27,9.60
2009,09,28,08,28,9.70
2009,09,28,08,29,9.70
2009,09,28,08,30,9.70
2009,09,28,08,31,9.70
2009,09,28,08,32,9.80
2009,09,28,08,33,9.90
2009,09,28,08,34,10.00
2009,09,28,08,35,10.10
2009,09,28,08,36,10.20
2009,09,28,08,37,10.30
2009,09,28,08,38,10.40
2009,09,28,08,39,10.40
2009,09,28,08,40,10.60
2009,09,28,08,41,10.60
2009,09,28,08,42,10.70
2009,09,28,08,43,10.80
2009,09,28,08,44,10.80
2009,09,28,08,45,10.90
2009,09,28,08,46,11.00
2009,09,28,08,47,11.10
2009,09,28,08,48,11.20
2009,09,28,08,49,11.20
2009,09,28,08,50,11.30
2009,09,28,08,51,11.40
2009,09,28,08,52,11.50
2009,09,28,08,53,11.60
2009,09,28,08,54,11.60
2009,09,28,08,55,11.70
2009,09,28,08,56,11.80
2009,09,28,08,57,11.90
2009,09,28,08,58,11.90
2009,09,28,08,59,12.00
2009,09,28,09,00,12.10
2009,09,28,09,01,12.10
2009,09,28,09,02,12.20
2009,09,28,09,03,12.30
2009,09,28,09,04,12.30
2009,09,28,09,05,12.30
2009,09,28,09,06,12.30
2009,09,28,09,07,12.30
2009,09,28,09,08,12.30
2009,09,28,09,09,12.30
2009,09,28,09,10,12.30
2009,09,28,09,11,12.40
2009,09,28,09,12,12.50
2009,09,28,09,13,12.60
2009,09,28,09,14,12.60
2009,09,28,09,15,12.70
2009,09,28,09,16,12.80
2009,09,28,09,17,12.80
2009,09,28,09,18,12.90
2009,09,28,09,19,12.90
2009,09,28,09,20,12.90
2009,09,28,09,21,12.90
2009,09,28,09,22,12.90
2009,09,28,09,23,12.90
2009,09,28,09,24,12.80
2009,09,28,09,25,12.80
2009,09,28,09,26,12.80
2009,09,28,09,27,12.70
2009,09,28,09,28,12.70
2009,09,28,09,29,12.60
2009,09,28,09,30,12.60
2009,09,28,09,31,12.60
2009,09,28,09,32,12.60
2009,09,28,09,33,12.60
2009,09,28,09,34,12.60
2009,09,28,09,35,12.70
2009,09,28,09,36,12.70
2009,09,28,09,37,12.80
2009,09,28,09,38,12.80
2009,09,28,09,39,12.90
2009,09,28,09,40,12.90
2009,09,28,09,41,12.90
2009,09,28,09,42,12.90
2009,09,28,09,43,12.90
2009,09,28,09,44,12.90
2009,09,28,09,45,12.90
2009,09,28,09,46,12.80
2009,09,28,09,47,12.80
2009,09,28,09,48,12.70
2009,09,28,09,49,12.70
2009,09,28,09,50,12.60
2009,09,28,09,51,12.50
2009,09,28,09,52,12.50
2009,09,28,09,53,12.50
2009,09,28,09,54,12.50
2009,09,28,09,55,12.50
2009,09,28,09,56,12.50
2009,09,28,09,57,12.60
2009,09,28,09,58,12.70
2009,09,28,09,59,12.70
2009,09,28,10,00,12.70
2009,09,28,10,01,12.80
2009,09,28,10,02,12.80
2009,09,28,10,03,12.80
2009,09,28,10,04,12.90
2009,09,28,10,05,12.90
2009,09,28,10,06,12.90
2009,09,28,10,07,13.00
2009,09,28,10,08,13.00
2009,09,28,10,09,13.10
2009,09,28,10,10,13.10
2009,09,28,10,11,13.20
2009,09,28,10,12,13.20
2009,09,28,10,13,13.30
2009,09,28,10,14,13.40
2009,09,28,10,15,13.50
2009,09,28,10,16,13.50
2009,09,28,10,17,13.60
2009,09,28,10,18,13.60
2009,09,28,10,19,13.70
2009,09,28,10,20,13.80
2009,09,28,10,21,13.80
2009,09,28,10,22,13.90
2009,09,28,10,23,13.90
2009,09,28,10,24,14.00
2009,09,28,10,25,14.10
2009,09,28,10,26,14.20
2009,09,28,10,27,14.30
2009,09,28,10,28,14.50
2009,09,28,10,29,14.60
2009,09,28,10,30,14.70
2009,09,28,10,31,14.80
2009,09,28,10,32,14.90
2009,09,28,10,33,15.00
2009,09,28,10,34,15.10
2009,09,28,10,35,15.30
2009,09,28,10,36,15.30
2009,09,28,10,37,15.50
2009,09,28,10,38,15.60
2009,09,28,10,39,15.70
2009,09,28,10,40,15.80
2009,09,28,10,41,15.90
2009,09,28,10,42,16.00
2009,09,28,10,43,16.10
2009,09,28,10,44,16.10
2009,09,28,10,45,16.20
2009,09,28,10,46,16.20
2009,09,28,10,47,16.10
2009,09,28,10,48,16.10
2009,09,28,10,49,16.10
2009,09,28,10,50,16.10
2009,09,28,10,51,16.10
2009,09,28,10,52,16.00
2009,09,28,10,53,15.90
2009,09,28,10,54,15.80
2009,09,28,10,55,15.80
2009,09,28,10,56,15.80
2009,09,28,10,57,15.80
2009,09,28,10,58,15.80
2009,09,28,10,59,15.70
2009,09,28,11,00,15.60
2009,09,28,11,01,15.60
2009,09,28,11,02,15.50
2009,09,28,11,03,15.50
2009,09,28,11,04,15.40
2009,09,28,11,05,15.40
2009,09,28,11,06,15.30
2009,09,28,11,07,15.30
2009,09,28,11,08,15.30
2009,09,28,11,09,15.30
2009,09,28,11,10,15.30
2009,09,28,11,11,15.30
2009,09,28,11,12,15.30
2009,09,28,11,13,15.30
2009,09,28,11,14,15.30
2009,09,28,11,15,15.30
2009,09,28,11,16,15.30
2009,09,28,11,17,15.30
2009,09,28,11,18,15.20
2009,09,28,11,19,15.20
2009,09,28,11,20,15.10
2009,09,28,11,21,15.10
2009,09,28,11,22,15.00
2009,09,28,11,23,15.00
2009,09,28,11,24,15.00
2009,09,28,11,25,15.00
2009,09,28,11,26,15.00
2009,09,28,11,27,15.10
2009,09,28,11,28,15.10
2009,09,28,11,29,15.10
2009,09,28,11,30,15.10
2009,09,28,11,31,15.10
2009,09,28,11,32,15.10
2009,09,28,11,33,15.10
2009,09,28,11,34,15.10
2009,09,28,11,35,15.10
2009,09,28,11,36,15.20
2009,09,28,11,37,15.20
2009,09,28,11,38,15.20
2009,09,28,11,39,15.10
2009,09,28,11,40,15.00
2009,09,28,11,41,15.00
2009,09,28,11,42,15.00
2009,09,28,11,43,15.00
2009,09,28,11,44,15.00
2009,09,28,11,45,15.00
2009,09,28,11,46,15.00
2009,09,28,11,47,15.00
2009,09,28,11,48,14.90
2009,09,28,11,49,14.90
2009,09,28,11,50,15.00
2009,09,28,11,51,15.00
2009,09,28,11,52,15.10
2009,09,28,11,53,15.10
2009,09,28,11,54,15.20
2009,09,28,11,55,15.20
2009,09,28,11,56,15.20
2009,09,28,11,57,15.20
2009,09,28,11,58,15.20
2009,09,28,11,59,15.20
2009,09,28,12,00,15.20
2009,09,28,12,01,15.30
2009,09,28,12,02,15.30
2009,09,28,12,03,15.30
2009,09,28,12,04,15.30
2009,09,28,12,05,15.20
2009,09,28,12,06,15.20
2009,09,28,12,07,15.20
2009,09,28,12,08,15.20
2009,09,28,12,09,15.30
2009,09,28,12,10,15.30
2009,09,28,12,11,15.30
2009,09,28,12,12,15.30
2009,09,28,12,13,15.30
2009,09,28,12,14,15.30
2009,09,28,12,15,15.30
2009,09,28,12,16,15.30
2009,09,28,12,17,15.30
2009,09,28,12,18,15.30
2009,09,28,12,19,15.40
2009,09,28,12,20,15.50
2009,09,28,12,21,15.50
2009,09,28,12,22,15.50
2009,09,28,12,23,15.60
2009,09,28,12,24,15.60
2009,09,28,12,25,15.70
2009,09,28,12,26,15.70
2009,09,28,12,27,15.70
2009,09,28,12,28,15.70
2009,09,28,12,29,15.70
2009,09,28,12,30,15.70
2009,09,28,12,31,15.70
2009,09,28,12,32,15.70
2009,09,28,12,33,15.70
2009,09,28,12,34,15.80
2009,09,28,12,35,15.80
2009,09,28,12,36,15.80
2009,09,28,12,37,15.80
2009,09,28,12,38,15.80
2009,09,28,12,39,15.80
2009,09,28,12,40,15.80
2009,09,28,12,41,15.80
2009,09,28,12,42,15.80
2009,09,28,12,43,15.80
2009,09,28,12,44,15.90
2009,09,28,12,45,15.90
2009,09,28,12,46,16.00
2009,09,28,12,47,16.10
2009,09,28,12,48,16.10
2009,09,28,12,49,16.10
2009,09,28,12,50,16.10
2009,09,28,12,51,16.10
2009,09,28,12,52,16.10
2009,09,28,12,53,16.10
2009,09,28,12,54,16.10
2009,09,28,12,55,16.10
2009,09,28,12,56,16.10
2009,09,28,12,57,16.10
2009,09,28,12,58,16.20
2009,09,28,12,59,16.20
2009,09,28,13,00,16.20
2009,09,28,13,01,16.20
2009,09,28,13,02,16.30
2009,09,28,13,03,16.30
2009,09,28,13,04,16.30
2009,09,28,13,05,16.30
2009,09,28,13,06,16.30
2009,09,28,13,07,16.30
2009,09,28,13,08,16.30
2009,09,28,13,09,16.30
2009,09,28,13,10,16.30
2009,09,28,13,11,16.30
2009,09,28,13,12,16.30
2009,09,28,13,13,16.30
2009,09,28,13,14,16.20
2009,09,28,13,15,16.20
2009,09,28,13,16,16.20
2009,09,28,13,17,16.20
2009,09,28,13,18,16.20
2009,09,28,13,19,16.20
2009,09,28,13,20,16.10
2009,09,28,13,21,16.10
2009,09,28,13,22,16.10
2009,09,28,13,23,16.10
2009,09,28,13,24,16.10
2009,09,28,13,25,16.10
2009,09,28,13,26,16.10
2009,09,28,13,27,16.10
2009,09,28,13,28,16.00
2009,09,28,13,29,15.90
2009,09,28,13,30,15.90
2009,09,28,13,31,15.90
2009,09,28,13,32,15.90
2009,09,28,13,33,15.80
2009,09,28,13,34,15.80
2009,09,28,13,35,15.90
2009,09,28,13,36,15.90
2009,09,28,13,37,15.80
2009,09,28,13,38,15.80
2009,09,28,13,39,15.80
2009,09,28,13,40,15.80
2009,09,28,13,41,15.80
2009,09,28,13,42,15.90
2009,09,28,13,43,15.90
2009,09,28,13,44,15.90
2009,09,28,13,45,15.80
2009,09,28,13,46,15.80
2009,09,28,13,47,15.70
2009,09,28,13,48,15.70
2009,09,28,13,49,15.60
2009,09,28,13,50,15.60
2009,09,28,13,51,15.60
2009,09,28,13,52,15.60
2009,09,28,13,53,15.60
2009,09,28,13,54,15.60
2009,09,28,13,55,15.70
2009,09,28,13,56,15.70
2009,09,28,13,57,15.70
2009,09,28,13,58,15.70
2009,09,28,13,59,15.60
2009,09,28,14,00,15.50
2009,09,28,14,01,15.50
2009,09,28,14,02,15.40
2009,09,28,14,03,15.30
2009,09,28,14,04,15.30
2009,09,28,14,05,15.20
2009,09,28,14,06,15.10
2009,09,28,14,07,15.10
2009,09,28,14,08,15.10
2009,09,28,14,09,15.10
2009,09,28,14,10,15.00
2009,09,28,14,11,15.00
2009,09,28,14,12,14.90
2009,09,28,14,13,14.80
2009,09,28,14,14,14.80
2009,09,28,14,15,14.70
2009,09,28,14,16,14.60
2009,09,28,14,17,14.60
2009,09,28,14,18,14.50
2009,09,28,14,19,14.50
2009,09,28,14,20,14.20
2009,09,28,14,21,14.20
2009,09,28,14,22,14.20
2009,09,28,14,23,14.10
2009,09,28,14,24,14.10
2009,09,28,14,25,14.10
2009,09,28,14,26,14.10
2009,09,28,14,27,14.10
2009,09,28,14,28,14.10
2009,09,28,14,29,14.20
2009,09,28,14,30,14.20
2009,09,28,14,31,14.20
2009,09,28,14,32,14.20
2009,09,28,14,33,14.20
2009,09,28,14,34,14.20
2009,09,28,14,35,14.20
2009,09,28,14,36,14.20
2009,09,28,14,37,14.30
2009,09,28,14,38,14.30
2009,09,28,14,39,14.40
2009,09,28,14,40,14.30
2009,09,28,14,41,14.30
2009,09,28,14,42,14.30
2009,09,28,14,43,14.30
2009,09,28,14,44,14.30
2009,09,28,14,45,14.20
2009,09,28,14,46,14.20
2009,09,28,14,47,14.10
2009,09,28,14,48,14.20
2009,09,28,14,49,14.20
2009,09,28,14,50,14.20
2009,09,28,14,51,14.20
2009,09,28,14,52,14.20
2009,09,28,14,53,14.20
2009,09,28,14,54,14.20
2009,09,28,14,55,14.20
2009,09,28,14,56,14.20
2009,09,28,14,57,14.30
2009,09,28,14,58,14.30
2009,09,28,14,59,14.30
2009,09,28,15,00,14.30
2009,09,28,15,01,14.20
2009,09,28,15,02,14.20
2009,09,28,15,03,14.20
2009,09,28,15,04,14.20
2009,09,28,15,05,14.20
2009,09,28,15,06,14.00
2009,09,28,15,07,13.90
2009,09,28,15,08,13.70
2009,09,28,15,09,13.70
2009,09,28,15,10,13.70
2009,09,28,15,11,13.70
2009,09,28,15,12,13.60
2009,09,28,15,13,13.60
2009,09,28,15,14,13.60
2009,09,28,15,15,13.60
2009,09,28,15,16,13.70
2009,09,28,15,17,13.60
2009,09,28,15,18,13.60
2009,09,28,15,19,13.60
2009,09,28,15,20,13.60
2009,09,28,15,21,13.50
2009,09,28,15,22,13.50
2009,09,28,15,23,13.50
2009,09,28,15,24,13.50
2009,09,28,15,25,13.40
2009,09,28,15,26,13.30
2009,09,28,15,27,13.30
2009,09,28,15,28,13.30
2009,09,28,15,29,13.20
2009,09,28,15,30,13.20
2009,09,28,15,31,13.10
2009,09,28,15,32,13.10
2009,09,28,15,33,13.10
2009,09,28,15,34,13.10
2009,09,28,15,35,13.10
2009,09,28,15,36,13.10
2009,09,28,15,37,13.00
2009,09,28,15,38,13.00
2009,09,28,15,39,12.90
2009,09,28,15,40,12.90
2009,09,28,15,41,12.80
2009,09,28,15,42,12.80
2009,09,28,15,43,12.70
2009,09,28,15,44,12.70
2009,09,28,15,45,12.70
2009,09,28,15,46,12.60
2009,09,28,15,47,12.60
2009,09,28,15,48,12.60
2009,09,28,15,49,12.50
2009,09,28,15,50,12.50
2009,09,28,15,51,12.50
2009,09,28,15,52,12.50
2009,09,28,15,53,12.40
2009,09,28,15,54,12.40
2009,09,28,15,55,12.40
2009,09,28,15,56,12.30
2009,09,28,15,57,12.30
2009,09,28,15,58,12.30
2009,09,28,15,59,12.30
2009,09,28,16,00,12.20
2009,09,28,16,01,12.20
2009,09,28,16,02,12.20
2009,09,28,16,03,12.10
2009,09,28,16,04,12.10
2009,09,28,16,05,12.10
2009,09,28,16,06,12.00
2009,09,28,16,07,12.00
2009,09,28,16,08,12.00
2009,09,28,16,09,11.90
2009,09,28,16,10,11.90
2009,09,28,16,11,11.90
2009,09,28,16,12,11.90
2009,09,28,16,13,11.80
2009,09,28,16,14,11.80
2009,09,28,16,15,11.80
2009,09,28,16,16,11.80
2009,09,28,16,17,11.80
2009,09,28,16,18,11.70
2009,09,28,16,19,11.70
2009,09,28,16,20,11.70
2009,09,28,16,21,11.60
2009,09,28,16,22,11.60
2009,09,28,16,23,11.60
2009,09,28,16,24,11.60
2009,09,28,16,25,11.60
2009,09,28,16,26,11.60
2009,09,28,16,27,11.60
2009,09,28,16,28,11.60
2009,09,28,16,29,11.60
2009,09,28,16,30,11.60
2009,09,28,16,31,11.60
2009,09,28,16,32,11.50
2009,09,28,16,33,11.40
2009,09,28,16,34,11.40
2009,09,28,16,35,11.40
2009,09,28,16,36,11.40
2009,09,28,16,37,11.40
2009,09,28,16,38,11.40
2009,09,28,16,39,11.30
2009,09,28,16,40,11.40
2009,09,28,16,41,11.40
2009,09,28,16,42,11.30
2009,09,28,16,43,11.30
2009,09,28,16,44,11.30
2009,09,28,16,45,11.30
2009,09,28,16,46,11.30
2009,09,28,16,47,11.30
2009,09,28,16,48,11.30
2009,09,28,16,49,11.30
2009,09,28,16,50,11.30
2009,09,28,16,51,11.20
2009,09,28,16,52,11.20
2009,09,28,16,53,11.20
2009,09,28,16,54,11.20
2009,09,28,16,55,11.20
2009,09,28,16,56,11.20
2009,09,28,16,57,11.20
2009,09,28,16,58,11.20
2009,09,28,16,59,11.10
2009,09,28,17,00,11.10
2009,09,28,17,01,11.10
2009,09,28,17,02,11.10
2009,09,28,17,03,11.10
2009,09,28,17,04,11.10
2009,09,28,17,05,11.10
2009,09,28,17,06,11.10
2009,09,28,17,07,11.10
2009,09,28,17,08,11.10
2009,09,28,17,09,11.10
2009,09,28,17,10,11.10
2009,09,28,17,11,11.10
2009,09,28,17,12,11.10
2009,09,28,17,13,11.10
2009,09,28,17,14,11.10
2009,09,28,17,15,11.10
2009,09,28,17,16,11.10
2009,09,28,17,17,11.10
2009,09,28,17,18,11.10
2009,09,28,17,19,11.10
2009,09,28,17,20,11.10
2009,09,28,17,21,11.10
2009,09,28,17,22,11.10
2009,09,28,17,23,11.10
2009,09,28,17,24,11.10
2009,09,28,17,25,11.10
2009,09,28,17,26,11.10
2009,09,28,17,27,11.10
2009,09,28,17,28,11.10
2009,09,28,17,29,11.10
2009,09,28,17,30,11.10
2009,09,28,17,31,11.10
2009,09,28,17,32,11.10
2009,09,28,17,33,11.10
2009,09,28,17,34,11.10
2009,09,28,17,35,11.10
2009,09,28,17,36,11.10
2009,09,28,17,37,11.10